Location: Quedlinburg
(51.7921°N, 11.1414°E)
Time: 00:19:36
(UTC+01:00)

ITAMSAT 1 - Visible Passes

Search period start: 13 March 2026 00:00
Search period end: 23 March 2026 00:00
Orbit: 781 x 794 km, 98.7° (Epoch: 12 March)

Date Brightness Start Highest point End Pass type
(mag) Time Alt. Az. Time Alt. Az. Time Alt. Az.
13 Mar 9.2 19:44:36 17° ENE 19:46:00 18° NE 19:49:27 10° N visible
13 Mar 7.7 21:25:15 73° NNW 21:25:15 73° NNW 21:29:57 10° NNW visible
13 Mar 10.1 23:05:55 15° WNW 23:05:55 15° WNW 23:08:01 10° NW visible
14 Mar 9.6 19:14:18 10° ENE 19:16:07 12° NE 19:17:56 10° NNE visible
14 Mar 7.8 20:54:26 53° ENE 20:54:27 53° ENE 20:59:30 10° N visible
14 Mar 9.4 22:35:04 26° WNW 22:35:04 26° WNW 22:38:33 10° NW visible
15 Mar 8.4 20:23:35 31° ENE 20:24:18 32° ENE 20:28:52 10° N visible
15 Mar 8.6 22:04:15 44° WNW 22:04:15 44° WNW 22:08:35 10° NNW visible
16 Mar 9.0 19:52:46 18° ENE 19:54:16 21° NE 19:58:02 10° N visible
16 Mar 7.7 21:33:25 76° WNW 21:33:25 76° WNW 21:38:20 10° NNW visible
16 Mar 10.2 23:14:03 13° WNW 23:14:03 13° WNW 23:15:57 10° NW visible
17 Mar 9.5 19:21:57 10° ENE 19:24:21 13° NE 19:26:46 10° NNE visible
17 Mar 7.6 21:02:35 60° E 21:02:48 61° ENE 21:07:55 10° N visible
17 Mar 9.5 22:43:14 23° W 22:43:14 23° W 22:46:46 10° NW visible
18 Mar 8.3 20:31:44 34° E 20:32:36 37° ENE 20:37:21 10° N visible
18 Mar 8.7 22:12:24 39° W 22:12:24 39° W 22:16:53 10° NNW visible
19 Mar 8.9 20:00:54 20° E 20:02:33 23° ENE 20:06:34 10° N visible
19 Mar 7.8 21:41:34 69° W 21:41:34 69° W 21:46:42 10° NNW visible
19 Mar 10.3 23:22:13 11° W 23:22:13 11° W 23:23:39 10° WNW visible
20 Mar 9.4 19:30:04 11° E 19:32:36 15° NE 19:35:28 10° NNE visible
20 Mar 7.5 21:10:44 67° ESE 21:11:09 71° ENE 21:16:21 10° NNW visible
20 Mar 9.7 22:51:23 20° W 22:51:23 20° W 22:54:56 10° NW visible
21 Mar 8.1 20:39:53 37° E 20:40:56 42° ENE 20:45:48 10° N visible
21 Mar 8.9 22:20:33 35° W 22:20:33 35° W 22:25:11 10° NNW visible
22 Mar 8.8 20:09:04 22° E 20:10:50 26° ENE 20:15:05 10° N visible
22 Mar 7.9 21:49:43 59° WSW 21:49:54 60° WSW 21:55:04 10° NNW visible
